sat.trackr.live / text

‹ back to catalog

PICO-01B009

NORAD 58287 · 2023-174AH

PAYLOAD ACTIVE UNKNOWN

§ Identity

Operator
Country
IT
Launch date
2023-11-11
Launch site
AFWTR
Launch vehicle
Mass (kg)
RCS (m²)

External: N2YO · Heavens-Above · Gunter

§ Orbital elements

Epoch: 2026-05-24T20:22:11.356320Z

Period
91.41 min
Inclination
97.3778°
Eccentricity
0.0004627
Mean motion
15.75235146 rev/d
Perigee alt
340.9 km
Apogee alt
347.1 km
Semi-major
6,722.1 km
B*
9.8986e-4
RAAN
240.1117°
Arg perigee
196.4700°
Mean anomaly
163.6416°
Rev number
14,248

§ Raw data

PICO-01B0091 58287U 23174AH  26144.84874255  .00150509  00000+0  98986-3 0  99992 58287  97.3778 240.1117 0004627 196.4700 163.6416 15.75235146142480

JSON: /api/v1/satellites/58287 · /tle

For live sub-satellite position, see the globe view (requires WebGL).

§ Visibility from observer

Set your observer location to see the next 7 days of passes ≥ 10°. The values pass through the URL so the page stays shareable.

No JS? Fill the form by hand. The geolocation button needs JavaScript.